DateTimeUTC,F1_A11,F1_S11,BsB_S11,BsG_S11,BsR_S11,BbsB_S11,BbsG_S11,BbsR_S11,BaB_A11,BaG_A11,BaR_A11,T_S11,U_S11,P_S11,T1_A11
2020-03-03T00:00:00Z,00000380,21000600,,,,,,,,,,23.6,00.0,0614.6,30.9
2020-03-03T00:01:00Z,00000380,21000600,,,,,,,,,,23.6,00.0,0614.6,30.9
2020-03-03T00:02:00Z,00000380,21000600,,,,,,,,,,23.6,00.0,0614.6,30.9
2020-03-03T00:03:00Z,00000380,61000600,,,,,,,,,,23.6,00.0,0614.6,30.9
2020-03-03T00:04:00Z,00000380,41000600,0000.31,0000.11,0000.74,-000.05,-000.15,0000.59,0000.18,0000.13,0000.15,23.4,00.0,0615.5,30.9
2020-03-03T00:05:00Z,00000380,01000600,0000.11,0000.06,0000.08,0000.75,0000.31,0000.04,-000.03,-000.18,-000.04,23.4,00.0,0615.6,30.9
2020-03-03T00:06:00Z,00000380,01000600,0000.39,0000.60,0000.17,-000.10,0000.07,0000.23,0000.18,0000.31,0000.13,23.4,00.0,0615.6,30.9
2020-03-03T00:07:00Z,00000380,01000600,0000.57,-000.05,0000.44,-000.22,0000.18,0000.41,0000.19,0000.18,0000.10,23.4,00.0,0615.6,30.9
2020-03-03T00:08:00Z,00000380,01000600,-000.42,0000.29,0000.06,0000.15,-000.22,-000.11,-000.07,-000.07,-000.04,23.4,00.0,0615.6,30.9
2020-03-03T00:09:00Z,00000380,01000600,0000.01,0001.19,-000.22,0000.85,0000.19,-000.22,-000.11,-000.21,-000.20,23.4,00.0,0615.5,30.9
2020-03-03T00:10:00Z,00000380,01000600,0000.82,-000.22,0000.77,0000.26,0000.16,0000.20,-000.10,0000.21,0000.25,23.4,00.0,0615.5,30.9
2020-03-03T00:11:00Z,00000380,01000600,0000.25,0000.55,0000.63,-000.03,-000.12,0000.52,0000.13,0000.04,0000.01,23.4,00.0,0615.5,30.9
2020-03-03T00:12:00Z,00000380,01000600,-000.53,0000.13,-000.14,0001.50,-000.16,-000.20,0000.02,0000.08,-000.01,23.4,00.0,0615.5,30.9
2020-03-03T00:13:00Z,00000380,01000600,-001.46,0000.63,-000.22,0000.05,-000.28,0000.22,0000.15,0000.07,-000.07,23.3,00.0,0615.5,30.9
2020-03-03T00:14:00Z,00000380,01000600,0000.58,0000.16,0000.27,0000.35,0000.18,0000.03,0000.00,-000.11,-000.02,23.3,00.0,0615.5,30.9
2020-03-03T00:15:00Z,00000380,01000600,-000.23,0000.56,0000.48,-000.06,0000.01,0000.27,-000.14,-000.33,0000.02,23.3,00.0,0615.5,30.9
2020-03-03T00:16:00Z,00000380,01000600,0001.24,0000.76,0000.22,0000.18,-000.64,0000.20,-000.05,-000.38,-000.22,23.3,00.0,0615.5,30.9
2020-03-03T00:17:00Z,00000380,01000600,-000.06,-000.71,0000.33,-000.73,-000.05,0000.64,0000.03,0000.33,0000.06,23.3,00.0,0615.5,30.9
2020-03-03T00:18:00Z,00000380,01000600,-000.29,0000.50,-000.06,-000.29,0000.02,0000.21,0000.26,0000.24,0000.15,23.3,00.0,0615.6,30.9
2020-03-03T00:19:00Z,00000380,01000600,0000.75,0000.38,0000.46,0000.05,0000.09,-000.20,-000.17,-000.03,-000.08,23.4,00.0,0615.6,30.9
2020-03-03T00:20:00Z,00000380,01000600,0000.20,0000.14,0000.34,-000.28,0000.44,0000.37,0000.27,0000.28,0000.31,23.4,00.0,0615.6,30.9
2020-03-03T00:21:00Z,00000380,01000600,0001.01,0000.35,0000.25,0000.03,-000.13,0000.28,0000.13,0000.24,0000.09,23.4,00.0,0615.6,30.9
2020-03-03T00:22:00Z,00000380,01000600,-000.43,0000.66,0000.26,0000.67,-000.20,0000.36,-000.12,-000.13,-000.22,23.4,00.0,0615.5,30.9
2020-03-03T00:23:00Z,00000380,01000600,0000.87,0000.37,0000.02,-000.62,-000.05,0000.23,-000.01,-000.02,0000.09,23.4,00.0,0615.5,30.9
2020-03-03T00:24:00Z,00000380,01000600,0001.33,0000.92,0000.73,0000.22,0000.15,0000.58,-000.01,0000.01,0000.11,23.4,00.0,0615.6,30.9
2020-03-03T00:25:00Z,00000380,01000600,0000.86,0000.36,0000.09,-000.70,-000.31,-000.19,0000.10,-000.09,-000.10,23.3,00.0,0615.5,30.9
2020-03-03T00:26:00Z,00000380,01000600,0000.98,0000.54,-000.06,0000.75,0000.03,0000.10,-000.10,0000.07,-000.02,23.3,00.0,0615.6,30.9
2020-03-03T00:27:00Z,00000380,01000600,0000.92,-000.00,0000.49,-000.24,0000.19,0000.52,0000.03,0000.17,0000.09,23.3,00.0,0615.6,30.9
2020-03-03T00:28:00Z,00000380,01000600,0000.85,0000.27,0000.30,-000.74,0000.12,-000.04,0000.04,0000.08,0000.11,23.3,00.0,0615.6,30.9
2020-03-03T00:29:00Z,00000380,01000600,0001.59,0000.89,0000.56,-000.81,-000.06,0000.42,0000.09,-000.28,-000.04,23.3,00.0,0615.6,30.9
2020-03-03T00:30:00Z,00000380,01000600,0001.04,0000.18,0000.13,-000.59,-000.28,0000.38,-000.16,-000.22,-000.19,23.3,00.0,0615.6,30.9
2020-03-03T00:31:00Z,00000380,01000600,0000.62,0000.57,0000.21,0000.09,-000.06,0000.54,-000.01,-000.03,0000.08,23.3,00.0,0615.6,30.9
2020-03-03T00:32:00Z,00000380,01000600,0000.54,0000.26,0000.62,0000.28,-000.02,0000.05,0000.07,-000.02,-000.10,23.3,00.0,0615.6,30.9
2020-03-03T00:33:00Z,00000380,01000600,0000.70,0000.38,0000.27,0000.23,0000.05,-000.17,0000.08,0000.30,0000.16,23.3,00.0,0615.7,30.9
2020-03-03T00:34:00Z,00000380,01000600,0001.00,0000.32,-000.22,0000.61,0000.26,0000.04,-000.04,-000.01,-000.02,23.3,00.0,0615.7,30.9
2020-03-03T00:35:00Z,00000380,01000600,0000.69,-000.12,0000.29,0000.78,-000.25,-000.00,0000.08,0000.26,0000.09,23.3,00.0,0615.8,30.9
2020-03-03T00:36:00Z,00000380,01000600,-000.88,0001.00,0000.68,-000.03,-000.14,0000.17,0000.04,0000.13,0000.03,23.3,00.0,0615.8,30.9
2020-03-03T00:37:00Z,00000380,01000600,0000.54,0000.32,0000.20,0000.04,-000.43,-000.21,0000.19,-000.08,0000.13,23.3,00.0,0615.7,30.9
2020-03-03T00:38:00Z,00000380,01000600,0001.42,0000.33,0000.43,-000.38,-000.55,0000.02,0000.07,0000.16,0000.00,23.3,00.0,0615.7,30.9
2020-03-03T00:39:00Z,00000380,01000600,0000.67,0000.58,0000.71,-000.15,-000.01,0000.64,-000.10,-000.01,-000.07,23.3,00.0,0615.7,30.9
2020-03-03T00:40:00Z,00000380,01000600,0000.74,0000.78,0000.04,-000.33,-000.07,0000.07,0000.09,-000.12,0000.05,23.3,00.0,0615.6,30.9
2020-03-03T00:41:00Z,00000380,01000600,0000.79,0000.81,0000.37,-000.43,0000.37,-000.13,0000.02,0000.26,0000.04,23.3,00.0,0615.6,30.9
2020-03-03T00:42:00Z,00000380,01000600,0001.06,0000.05,0000.49,0000.22,-000.57,0000.21,-000.07,-000.22,-000.14,23.3,00.0,0615.6,30.9
2020-03-03T00:43:00Z,00000380,01000600,0000.82,0000.15,0000.60,0000.10,-000.37,0000.20,0000.03,0000.05,0000.16,23.2,00.0,0615.6,30.9
2020-03-03T00:44:00Z,00000380,01000600,0000.89,0000.45,-000.22,-000.70,-000.05,0000.23,0000.15,0000.28,0000.11,23.2,00.0,0615.6,30.9
2020-03-03T00:45:00Z,00000380,01000600,0000.99,0000.53,0000.16,-000.48,0000.07,0000.12,-000.01,-000.30,-000.16,23.2,00.0,0615.6,30.9
2020-03-03T00:46:00Z,00000380,01000600,0000.39,0000.03,0000.84,0000.56,-000.11,-000.16,-000.05,0000.01,0000.09,23.2,00.0,0615.6,30.9
2020-03-03T00:47:00Z,00000380,01000600,-000.10,0000.55,0000.66,0000.02,0000.08,0000.61,0000.14,-000.08,-000.08,23.2,00.0,0615.6,30.9
2020-03-03T00:48:00Z,00000380,01000600,0000.47,0000.76,0000.69,0000.51,0000.25,0000.09,-000.02,0000.26,0000.12,23.3,00.0,0615.7,30.9
2020-03-03T00:49:00Z,00000380,01000600,0001.13,0000.20,0000.63,0000.73,-000.11,0000.46,0000.05,-000.02,-000.03,23.3,00.0,0615.7,30.9
2020-03-03T00:50:00Z,00000380,01000600,-001.26,0000.68,0000.28,0000.19,-000.39,0000.52,0000.06,0000.13,0000.10,23.3,00.0,0615.7,30.9
2020-03-03T00:51:00Z,00000380,01000600,0000.47,0000.40,0000.28,0000.60,-000.33,0000.54,0000.07,0000.04,0000.03,23.3,00.0,0615.8,30.9
2020-03-03T00:52:00Z,00000380,01000600,0001.22,0000.49,0000.61,-000.44,-000.33,-000.25,-000.01,0000.09,0000.12,23.3,00.0,0615.8,30.9
2020-03-03T00:53:00Z,00000380,01000600,0000.86,0000.54,0000.29,-000.14,0000.03,0000.49,0000.09,0000.24,0000.09,23.3,00.0,0615.7,30.9
2020-03-03T00:54:00Z,00000380,01000600,0000.53,0000.84,0000.21,0000.65,-000.05,0000.37,0000.06,-000.09,-000.03,23.3,00.0,0615.7,30.9
2020-03-03T00:55:00Z,00000380,01000600,0000.83,-000.04,0000.49,-000.27,-000.24,0000.06,0000.13,0000.15,0000.08,23.3,00.0,0615.7,30.9
2020-03-03T00:56:00Z,00000380,01000600,-000.45,0001.17,0000.47,-000.84,-000.06,0000.13,-000.11,-000.01,-000.31,23.3,00.0,0615.7,30.9
2020-03-03T00:57:00Z,00000380,41000600,,,,,,,,,,23.3,00.0,0615.7,30.9
2020-03-03T00:58:00Z,00000380,61000600,,,,,,,,,,23.4,00.0,0614.8,30.9
2020-03-03T00:59:00Z,00000380,21000600,,,,,,,,,,23.5,00.0,0614.8,30.9
2020-03-03T01:00:00Z,00000380,21000600,,,,,,,,,,23.5,00.0,0614.8,30.9
2020-03-03T01:01:00Z,00000380,21000600,,,,,,,,,,23.5,00.0,0614.8,30.9
2020-03-03T01:02:00Z,00000380,21000600,,,,,,,,,,23.5,00.0,0614.8,30.9
2020-03-03T01:03:00Z,00000380,61000600,,,,,,,,,,23.5,00.0,0614.8,30.9
2020-03-03T01:04:00Z,00000380,41000600,0000.90,0000.27,0000.15,-000.57,-000.00,-000.10,0000.22,0000.37,0000.25,23.4,00.0,0615.7,30.9
2020-03-03T01:05:00Z,00000380,01000600,0000.96,0000.37,0000.24,-000.77,0000.14,-000.01,-000.15,-000.09,-000.02,23.3,00.0,0615.8,30.9
2020-03-03T01:06:00Z,00000380,01000600,0000.50,0001.03,0000.31,0000.63,-000.17,-000.37,0000.32,0000.42,0000.23,23.3,00.0,0615.8,30.9
2020-03-03T01:07:00Z,00000380,01000600,0000.84,0000.33,-000.07,0000.38,-000.05,-000.29,0000.01,-000.08,-000.08,23.3,00.0,0615.7,30.9
2020-03-03T01:08:00Z,00000380,01000600,0001.63,0000.65,-000.07,0000.38,-000.12,-000.12,-000.10,0000.13,0000.09,23.3,00.0,0615.8,30.9
2020-03-03T01:09:00Z,00000380,01000600,0000.91,0000.58,0000.49,-000.01,-000.21,0000.03,0000.01,-000.14,-000.25,23.3,00.0,0615.7,30.9
2020-03-03T01:10:00Z,00000380,01000600,0001.86,0000.20,-000.14,0000.00,0000.05,-000.33,-000.12,-000.16,-000.07,23.3,00.0,0615.8,30.9
2020-03-03T01:11:00Z,00000380,01000600,0000.84,0000.89,0000.57,0000.07,0000.21,0000.21,0000.11,0000.07,0000.09,23.3,00.0,0615.8,30.9
2020-03-03T01:12:00Z,00000380,01000600,-000.85,0000.60,0000.69,-000.52,0000.13,-000.16,0000.11,0000.05,0000.17,23.3,00.0,0615.8,30.9
2020-03-03T01:13:00Z,00000380,01000600,0001.22,0000.48,0000.39,-000.01,-000.38,-000.37,-000.04,0000.24,-000.10,23.3,00.0,0615.8,30.9
2020-03-03T01:14:00Z,00000380,01000600,0001.45,0000.66,-000.11,0000.67,-000.08,0000.18,-000.05,-000.32,0000.06,23.3,00.0,0615.8,30.9
2020-03-03T01:15:00Z,00000380,01000600,-000.37,0000.65,-000.03,0000.72,0000.24,-000.25,-000.06,-000.12,-000.08,23.3,00.0,0615.8,30.9
2020-03-03T01:16:00Z,00000380,01000600,-000.19,0000.54,-000.16,-000.13,-000.05,0000.02,0000.01,-000.02,0000.05,23.3,00.0,0615.8,30.9
2020-03-03T01:17:00Z,00000380,01000600,0000.44,-000.31,0000.70,0000.06,0000.21,0000.03,0000.08,-000.15,-000.03,23.3,00.0,0615.8,30.9
2020-03-03T01:18:00Z,00000380,01000600,0000.29,0000.27,-000.20,0000.27,0000.37,-000.29,0000.10,0000.34,0000.07,23.3,00.0,0615.8,30.9
2020-03-03T01:19:00Z,00000380,01000600,0000.59,0000.38,-000.06,-000.40,-000.08,0000.17,0000.18,0000.35,0000.14,23.3,00.0,0615.7,30.9
2020-03-03T01:20:00Z,00000380,01000600,0001.90,0000.68,0000.54,-000.73,-000.10,0000.05,-000.04,-000.21,0000.07,23.3,00.0,0615.8,30.9
2020-03-03T01:21:00Z,00000380,01000600,0001.05,0000.30,0000.20,-000.03,0000.19,-000.79,0000.18,0000.30,0000.19,23.3,00.0,0615.8,30.9
2020-03-03T01:22:00Z,00000380,01000600,0000.97,0000.34,0000.43,-000.39,0000.26,0000.26,0000.03,-000.08,0000.10,23.4,00.0,0615.8,30.9
2020-03-03T01:23:00Z,00000380,01000600,-000.36,0001.00,0000.10,0000.72,0000.05,-000.21,-000.08,0000.13,-000.14,23.4,00.0,0615.8,30.9
2020-03-03T01:24:00Z,00000380,01000600,0000.47,0000.21,0000.11,-000.40,0000.05,-000.58,-000.07,-000.01,-000.05,23.4,00.0,0615.8,30.9
2020-03-03T01:25:00Z,00000380,01000600,0000.44,0000.17,0000.11,0000.52,-000.03,-000.01,0000.05,-000.08,0000.14,23.3,00.0,0615.8,30.9
2020-03-03T01:26:00Z,00000380,01000600,0000.82,0000.84,-000.21,0000.53,0000.20,-000.16,0000.03,0000.20,-000.03,23.3,00.0,0615.8,30.9
2020-03-03T01:27:00Z,00000380,01000600,0001.60,0000.91,0000.37,-000.15,0000.42,0000.02,0000.02,-000.08,0000.02,23.3,00.0,0615.8,30.9
2020-03-03T01:28:00Z,00000380,01000600,-000.26,0000.57,0000.47,-000.26,0000.15,-000.40,0000.18,0000.09,-000.01,23.3,00.0,0615.8,30.9
2020-03-03T01:29:00Z,00000380,01000600,0000.45,0000.38,0000.33,0000.33,-000.34,-000.49,-000.17,-000.01,-000.02,23.3,00.0,0615.8,30.9
2020-03-03T01:30:00Z,00000380,01000600,0000.44,0000.00,-000.18,-000.63,-000.03,0000.19,-000.10,-000.22,-000.03,23.3,00.0,0615.8,30.9
2020-03-03T01:31:00Z,00000380,01000600,0000.93,0000.71,0000.14,0000.61,0000.32,-000.20,0000.01,0000.18,0000.10,23.3,00.0,0615.8,30.9
2020-03-03T01:32:00Z,00000380,01000600,0001.81,0000.85,0000.39,0000.37,0000.18,-000.24,-000.02,-000.39,-000.04,23.3,00.0,0615.9,30.9
2020-03-03T01:33:00Z,00000380,01000600,0000.66,-000.51,0000.33,-000.52,-000.02,0000.11,0000.06,0000.37,0000.03,23.4,00.0,0615.9,30.9
2020-03-03T01:34:00Z,00000380,01000600,0001.37,0000.17,0000.77,0001.08,-000.21,-000.23,0000.32,0000.37,0000.18,23.4,00.0,0615.8,30.9
2020-03-03T01:35:00Z,00000380,01000600,0000.29,0000.61,-000.13,-000.82,-000.06,-000.24,-000.06,-000.30,-000.12,23.4,00.0,0615.8,30.9
2020-03-03T01:36:00Z,00000380,01000600,0000.48,0000.55,0000.09,-000.24,0000.09,-000.18,0000.05,0000.22,0000.00,23.4,00.0,0615.9,30.9
2020-03-03T01:37:00Z,00000380,01000600,0000.14,0000.67,-000.03,0000.43,-000.21,-000.01,0000.12,-000.03,0000.16,23.4,00.0,0615.9,30.9
2020-03-03T01:38:00Z,00000380,01000600,0000.55,0000.46,-000.15,0001.11,-000.03,-000.33,-000.05,0000.11,0000.06,23.4,00.0,0615.9,30.9
2020-03-03T01:39:00Z,00000380,01000600,0001.33,0000.53,0000.02,0000.06,-000.09,-000.18,0000.12,0000.13,0000.03,23.4,00.0,0615.9,30.9
2020-03-03T01:40:00Z,00000380,01000600,0000.83,0000.44,-000.07,-000.15,0000.21,-000.39,0000.02,-000.09,0000.02,23.4,00.0,0615.8,30.9
2020-03-03T01:41:00Z,00000380,01000600,0000.30,0000.26,0000.03,0001.81,-000.06,-000.26,0000.11,0000.06,-000.00,23.4,00.0,0615.8,30.9
2020-03-03T01:42:00Z,00000380,01000600,0000.50,0000.29,0000.39,-000.07,-000.15,0000.08,-000.03,-000.01,0000.04,23.4,00.0,0615.9,30.9
2020-03-03T01:43:00Z,00000380,01000600,0000.68,0000.49,0000.55,-000.21,0000.35,0000.53,0000.00,0000.11,0000.01,23.4,00.0,0615.8,30.9
2020-03-03T01:44:00Z,00000380,01000600,0001.19,0000.51,0000.92,0000.33,0000.25,-000.16,0000.09,0000.01,0000.08,23.3,00.0,0615.8,30.9
2020-03-03T01:45:00Z,00000380,01000600,0001.24,0000.53,0000.48,0001.02,-000.24,0000.08,-000.19,-000.18,-000.25,23.3,00.0,0615.8,30.9
2020-03-03T01:46:00Z,00000380,01000600,0000.87,0000.64,0000.09,0000.37,-000.05,-000.31,0000.17,-000.12,0000.12,23.3,00.0,0615.8,30.9
2020-03-03T01:47:00Z,00000380,01000600,0000.63,0000.56,0000.05,-000.40,0000.18,-000.01,-000.13,-000.05,-000.06,23.3,00.0,0615.9,30.9
2020-03-03T01:48:00Z,00000380,01000600,0000.52,0000.20,0000.86,0001.77,-000.08,0000.25,0000.34,0000.47,0000.12,23.4,00.0,0615.9,30.9
2020-03-03T01:49:00Z,00000380,01000600,0001.06,0000.69,-000.12,0000.15,0000.49,-000.46,0000.00,-000.20,0000.17,23.4,00.0,0615.9,30.9
2020-03-03T01:50:00Z,00000380,01000600,-000.80,0000.90,0000.71,0000.23,0000.10,0000.03,0000.17,0000.28,-000.02,23.4,00.0,0615.9,30.9
2020-03-03T01:51:00Z,00000380,01000600,-000.83,0000.25,0000.12,0000.29,0000.06,-000.18,0000.06,0000.18,0000.08,23.4,00.0,0615.9,30.9
2020-03-03T01:52:00Z,00000380,01000600,0000.98,0000.71,0000.14,-000.31,-000.20,-000.12,-000.15,-000.14,0000.09,23.4,00.0,0615.9,30.9
2020-03-03T01:53:00Z,00000380,01000600,-000.02,0000.90,0000.28,0000.10,0000.23,0000.07,-000.01,-000.07,-000.14,23.3,00.0,0616.0,30.9
2020-03-03T01:54:00Z,00000380,01000600,0001.06,0000.72,0000.27,0000.57,0000.31,-000.04,0000.09,0000.16,-000.02,23.3,00.0,0615.9,30.9
2020-03-03T01:55:00Z,00000380,01000600,0001.40,0000.32,0000.15,0000.45,-000.25,-000.30,-000.01,-000.14,0000.16,23.3,00.0,0615.9,30.9
2020-03-03T01:56:00Z,00000380,01000600,0001.14,0000.44,0000.50,-000.48,0000.00,-000.25,0000.06,0000.17,-000.01,23.3,00.0,0615.9,30.9
2020-03-03T01:57:00Z,00000380,41000600,,,,,,,,,,23.3,00.0,0615.9,30.9
2020-03-03T01:58:00Z,00000380,61000600,,,,,,,,,,23.4,00.0,0615.0,30.9
2020-03-03T01:59:00Z,00000380,21000600,,,,,,,,,,23.5,00.0,0615.0,30.9
2020-03-03T02:00:00Z,00000380,21000600,,,,,,,,,,23.5,00.0,0615.0,30.9
2020-03-03T02:01:00Z,00000380,21000600,,,,,,,,,,23.5,00.0,0615.0,30.9
2020-03-03T02:02:00Z,00000380,21000600,,,,,,,,,,23.5,00.0,0615.0,30.9
2020-03-03T02:03:00Z,00000380,61000600,,,,,,,,,,23.5,00.0,0615.0,30.9
2020-03-03T02:04:00Z,00000380,41000600,0001.29,0001.20,0000.72,0000.06,0000.51,0000.35,-000.06,0000.02,0000.03,23.4,00.0,0615.9,30.9
2020-03-03T02:05:00Z,00000380,01000600,0000.56,0000.03,0000.18,-000.39,0000.09,0000.19,0000.22,0000.04,0000.08,23.4,00.0,0616.0,30.9
2020-03-03T02:06:00Z,00000380,01000600,0000.44,0000.34,0000.09,-000.20,0000.31,-000.24,0000.11,0000.37,0000.02,23.4,00.0,0615.9,30.9
2020-03-03T02:07:00Z,00000380,01000600,0000.70,0000.85,0000.31,-001.35,-000.08,0000.00,-000.10,-000.00,0000.21,23.3,00.0,0615.9,30.9
2020-03-03T02:08:00Z,00000380,01000600,0000.60,0001.06,0000.50,-000.77,-000.06,0000.18,0000.03,0000.13,0000.13,23.3,00.0,0616.0,30.9
2020-03-03T02:09:00Z,00000380,01000600,0000.91,0000.47,0000.85,0000.33,0000.37,0000.46,0000.12,-000.07,-000.12,23.3,00.0,0615.9,30.9
2020-03-03T02:10:00Z,00000380,01000600,-001.00,0000.29,0000.05,0000.79,-000.43,0000.29,-000.12,0000.01,-000.06,23.3,00.0,0615.9,30.9
2020-03-03T02:11:00Z,00000380,01000600,0000.36,0000.40,0000.47,0000.26,0000.02,0000.23,0000.12,0000.03,0000.02,23.3,00.0,0615.9,30.9
2020-03-03T02:12:00Z,00000380,01000600,0001.26,0000.91,0000.39,-000.13,0000.33,0000.24,0000.05,0000.06,0000.24,23.3,00.0,0615.9,30.9
2020-03-03T02:13:00Z,00000380,01000600,0000.85,0000.43,0000.90,0000.15,-000.05,0000.56,0000.10,-000.02,-000.09,23.3,00.0,0615.9,30.9
2020-03-03T02:14:00Z,00000380,01000600,-001.04,0000.72,0000.66,-000.29,-000.36,0000.17,-000.02,0000.05,0000.01,23.3,00.0,0615.9,30.9
2020-03-03T02:15:00Z,00000380,01000600,0000.49,0000.98,0000.37,-000.29,0000.51,-000.03,-000.03,-000.17,-000.15,23.3,00.0,0615.8,30.9
2020-03-03T02:16:00Z,00000380,01000600,0000.03,0001.02,0000.59,-001.33,-000.07,0000.53,0000.03,-000.01,0000.12,23.3,00.0,0615.8,30.9
2020-03-03T02:17:00Z,00000380,01000600,0001.68,0000.50,0000.62,-000.49,0000.30,0000.29,-000.05,0000.17,0000.04,23.3,00.0,0615.8,30.9
2020-03-03T02:18:00Z,00000380,01000600,-000.03,0000.84,0000.20,0000.03,0000.13,-000.14,-000.06,-000.24,-000.08,23.3,00.0,0615.8,30.9
2020-03-03T02:19:00Z,00000380,01000600,0001.15,0000.17,0000.03,0000.11,0000.26,0000.09,0000.33,0000.39,0000.18,23.4,00.0,0615.9,30.9
2020-03-03T02:20:00Z,00000380,01000600,0000.82,0000.86,0000.69,-000.35,0000.22,0000.02,0000.13,-000.03,0000.04,23.4,00.0,0615.9,30.9
2020-03-03T02:21:00Z,00000380,01000600,0000.76,0000.49,0000.69,-000.52,0000.37,0000.52,-000.02,0000.39,0000.16,23.4,00.0,0615.9,30.9
2020-03-03T02:22:00Z,00000380,01000600,0001.89,0000.69,0000.70,-000.15,0000.20,0000.40,0000.10,-000.11,-000.20,23.4,00.0,0615.8,30.9
2020-03-03T02:23:00Z,00000380,01000600,-000.31,0000.39,0000.56,0000.42,0000.19,0000.57,-000.12,0000.11,0000.28,23.4,00.0,0615.9,30.9
2020-03-03T02:24:00Z,00000380,01000600,0001.58,0000.42,0000.91,0000.23,0000.25,0000.23,-000.04,-000.11,-000.14,23.4,00.0,0615.9,30.9
2020-03-03T02:25:00Z,00000380,01000600,0000.38,0000.70,0000.12,-000.53,0000.14,-000.10,0000.01,-000.27,0000.00,23.3,00.0,0615.9,30.9
2020-03-03T02:26:00Z,00000380,01000600,0000.35,0000.96,0000.57,0000.19,0000.38,0000.71,0000.18,0000.26,0000.18,23.3,00.0,0615.9,30.9
2020-03-03T02:27:00Z,00000380,01000600,0000.62,0000.43,0000.59,-000.07,0000.29,0000.05,-000.02,-000.08,-000.09,23.3,00.0,0615.9,30.9
2020-03-03T02:28:00Z,00000380,01000600,0000.17,0000.43,0000.32,-000.22,0000.07,0000.58,-000.05,0000.16,-000.08,23.3,00.0,0616.0,30.9
2020-03-03T02:29:00Z,00000380,01000600,0000.94,0000.76,0000.77,0000.04,0000.47,0000.08,0000.09,-000.02,0000.07,23.3,00.0,0616.0,30.9
2020-03-03T02:30:00Z,00000380,01000600,0000.93,0000.77,0000.65,-000.48,-000.29,0000.08,-000.26,-000.22,-000.12,23.3,00.0,0616.0,30.9
2020-03-03T02:31:00Z,00000380,01000600,0000.23,0000.60,0000.24,0000.61,0000.40,0000.14,-000.02,-000.23,-000.14,23.3,00.0,0616.1,30.9
2020-03-03T02:32:00Z,00000380,01000600,0000.79,0000.90,0000.88,0000.37,0000.15,0000.22,0000.12,0000.11,0000.33,23.3,00.0,0616.0,30.9
2020-03-03T02:33:00Z,00000380,01000600,0000.76,0000.27,0000.58,-000.62,0000.16,0000.21,0000.16,0000.23,-000.01,23.3,00.0,0616.1,30.9
2020-03-03T02:34:00Z,00000380,01000600,0000.28,0000.28,0000.26,0000.11,0000.32,0000.11,0000.07,0000.10,0000.03,23.4,00.0,0616.1,30.9
2020-03-03T02:35:00Z,00000380,01000600,0001.47,0000.71,0000.39,-000.07,-000.40,0000.10,0000.06,-000.03,-000.08,23.4,00.0,0616.1,30.9
2020-03-03T02:36:00Z,00000380,01000600,-001.08,0000.48,0000.54,-000.13,-000.24,0000.13,0000.12,0000.23,0000.13,23.4,00.0,0616.2,30.9
2020-03-03T02:37:00Z,00000380,01000600,0000.92,0000.07,0001.07,0000.39,-000.09,0000.27,-000.01,0000.04,0000.09,23.4,00.0,0616.2,30.9
2020-03-03T02:38:00Z,00000380,01000600,0000.59,0001.42,0000.50,0000.03,0000.02,0000.23,-000.05,-000.10,-000.05,23.3,00.0,0616.2,30.9
2020-03-03T02:39:00Z,00000380,01000600,0000.33,0000.52,0000.34,0000.41,0000.12,0000.30,-000.02,0000.04,-000.11,23.3,00.0,0616.2,30.9
2020-03-03T02:40:00Z,00000380,01000600,0000.82,0000.63,0000.45,-000.44,0000.47,0000.03,0000.03,0000.01,0000.01,23.3,00.0,0616.2,30.9
2020-03-03T02:41:00Z,00000380,01000600,0001.31,0000.69,0000.55,0000.03,0000.25,-000.03,0000.01,-000.21,-000.01,23.3,00.0,0616.2,30.9
2020-03-03T02:42:00Z,00000380,01000600,0002.11,0000.22,0000.18,-000.57,0000.14,-000.03,-000.07,0000.15,0000.16,23.3,00.0,0616.2,30.9
2020-03-03T02:43:00Z,00000380,01000600,0001.20,0000.87,0000.57,0000.32,-000.05,0000.20,-000.11,-000.12,-000.27,23.3,00.0,0616.3,30.9
2020-03-03T02:44:00Z,00000380,01000600,-000.79,0000.56,-000.07,-000.31,0000.11,-000.14,0000.13,0000.15,0000.19,23.3,00.0,0616.2,30.9
2020-03-03T02:45:00Z,00000380,01000600,-000.25,0000.28,0000.81,-000.29,-000.16,0000.53,-000.03,-000.32,-000.08,23.2,00.0,0616.2,30.9
2020-03-03T02:46:00Z,00000380,01000600,0000.50,0000.86,0000.63,-000.60,0000.16,0000.18,0000.14,0000.10,0000.08,23.2,00.0,0616.2,30.9
2020-03-03T02:47:00Z,00000380,01000600,0000.65,0000.65,0000.37,-000.08,-000.26,-000.13,-000.35,-000.26,-000.09,23.3,00.0,0616.2,30.9
2020-03-03T02:48:00Z,00000380,01000600,0000.96,0000.28,0000.72,-000.34,0000.43,0000.20,0000.11,0000.16,-000.11,23.3,00.0,0616.2,30.9
2020-03-03T02:49:00Z,00000380,01000600,0000.54,0000.72,0000.93,-000.20,-000.20,0000.50,0000.14,0000.20,0000.19,23.3,00.0,0616.3,30.9
2020-03-03T02:50:00Z,00000380,01000600,0000.99,0000.78,0000.63,0000.17,0000.02,0000.43,0000.12,-000.04,0000.02,23.3,00.0,0616.3,30.9
2020-03-03T02:51:00Z,00000380,01000600,0000.65,0000.06,0000.11,0000.39,-000.34,0000.21,-000.04,0000.33,-000.07,23.3,00.0,0616.3,30.9
2020-03-03T02:52:00Z,00000380,01000600,0000.65,0000.19,0000.25,0000.11,-000.04,-000.08,0000.11,0000.17,0000.21,23.3,00.0,0616.2,30.9
2020-03-03T02:53:00Z,00000380,01000600,0000.78,0000.62,0000.83,-000.83,-000.13,0000.39,-000.00,-000.14,0000.05,23.3,00.0,0616.1,30.9
2020-03-03T02:54:00Z,00000380,01000600,0001.25,0000.27,0000.28,-000.06,-000.15,0000.14,0000.03,-000.05,-000.07,23.3,00.0,0616.1,30.9
2020-03-03T02:55:00Z,00000380,01000600,-000.34,0000.54,0000.70,-000.30,0000.11,-000.11,-000.08,0000.10,0000.03,23.3,00.0,0616.1,30.9
2020-03-03T02:56:00Z,00000380,01000600,0001.65,0000.24,0000.85,0000.04,-000.34,-000.16,0000.22,-000.10,0000.16,23.3,00.0,0616.2,30.9
2020-03-03T02:57:00Z,00000380,41000600,,,,,,,,,,23.3,00.0,0616.2,30.9
2020-03-03T02:58:00Z,00000380,61000600,,,,,,,,,,23.4,00.0,0615.5,30.9
2020-03-03T02:59:00Z,00000380,21000600,,,,,,,,,,23.5,00.0,0615.5,30.9
2020-03-03T03:00:00Z,00000380,21000600,,,,,,,,,,23.5,00.0,0615.5,30.9
2020-03-03T03:01:00Z,00000380,21000600,,,,,,,,,,23.5,00.0,0615.5,30.9
2020-03-03T03:02:00Z,00000380,21000600,,,,,,,,,,23.5,00.0,0615.6,30.9
2020-03-03T03:03:00Z,00000380,61000600,,,,,,,,,,23.5,00.0,0615.6,30.9
2020-03-03T03:04:00Z,00000380,41000600,0000.02,0000.84,0000.83,0000.30,0000.09,0000.18,-000.07,0000.23,-000.01,23.4,00.0,0616.4,30.9
2020-03-03T03:05:00Z,00000380,01000600,0000.92,0000.57,-000.06,0000.50,0000.12,0000.56,0000.16,-000.14,-000.04,23.4,00.0,0616.5,30.9
2020-03-03T03:06:00Z,00000380,01000600,0000.16,0000.26,0000.40,0000.71,0000.14,-000.27,0000.03,0000.38,0000.02,23.4,00.0,0616.5,30.9
2020-03-03T03:07:00Z,00000380,01000600,0001.90,0000.15,0000.07,0000.26,0000.15,0000.08,-000.14,-000.21,-000.06,23.4,00.0,0616.5,30.9
2020-03-03T03:08:00Z,00000380,01000600,0000.33,0000.24,0000.12,0000.60,0000.38,0000.39,0000.25,0000.35,0000.34,23.4,00.0,0616.5,30.9
2020-03-03T03:09:00Z,00000380,01000600,0000.09,0000.10,0000.33,0000.58,0000.31,0000.10,-000.01,-000.05,-000.15,23.4,00.0,0616.6,30.9
2020-03-03T03:10:00Z,00000380,01000600,0000.19,0000.18,0001.03,-000.53,0000.53,-000.01,0000.00,-000.03,0000.12,23.4,00.0,0616.6,30.9